QPF
0.00 0.00 0.00 0.00 0.00 0.00 0.00 0.00 0.01 0.01 0.01 0.02 0.05 0.08 0.13 0.14 0.13 0.09 0.09 0.08 0.06 0.07 0.07 0.07 0.07 0.07 0.07 0.08 0.07 0.07 0.06 0.05 0.04 0.04 0.04 0.04 0.05 0.05
0.01 0.01 0.00 0.00 0.00 0.00 0.00 0.00 0.00 0.01 0.01 0.01 0.03 0.06 0.10 0.12 0.15 0.15 0.13 0.10 0.07 0.07 0.07 0.07 0.07 0.07 0.07 0.07 0.07 0.06 0.05 0.04 0.04 0.03 0.02 0.02 0.02 0.02
0.01 0.01 0.01 0.01 0.00 0.00 0.00 0.00 0.00 0.01 0.01 0.01 0.01 0.03 0.06 0.08 0.11 0.14 0.19 0.20 0.14 0.10 0.09 0.08 0.08 0.08 0.08 0.08 0.08 0.07 0.06 0.06 0.04 0.03 0.02 0.03 0.03 0.02
0.01 0.02 0.01 0.01 0.01 0.01 0.01 0.01 0.01 0.01 0.01 0.01 0.01 0.01 0.03 0.05 0.08 0.09 0.12 0.17 0.20 0.18 0.13 0.11 0.10 0.10 0.10 0.09 0.09 0.08 0.07 0.07 0.07 0.05 0.03 0.03 0.03 0.03
0.01 0.02 0.02 0.02 0.02 0.02 0.02 0.01 0.01 0.01 0.01 0.01 0.01 0.01 0.02 0.04 0.07 0.08 0.09 0.13 0.14 0.16 0.16 0.13 0.10 0.09 0.10 0.10 0.10 0.10 0.09 0.08 0.07 0.06 0.05 0.03 0.03 0.02
0.02 0.02 0.02 0.02 0.03 0.03 0.03 0.03 0.02 0.02 0.02 0.01 0.01 0.01 0.02 0.04 0.08 0.10 0.10 0.12 0.14 0.13 0.11 0.10 0.10 0.10 0.10 0.11 0.11 0.10 0.10 0.09 0.07 0.06 0.06 0.05 0.03 0.03
0.02 0.02 0.03 0.02 0.02 0.02 0.01 0.02 0.02 0.02 0.02 0.02 0.01 0.01 0.02 0.04 0.08 0.12 0.14 0.16 0.17 0.17 0.13 0.09 0.08 0.08 0.08 0.10 0.13 0.14 0.12 0.11 0.09 0.07 0.05 0.05 0.04 0.04
0.01 0.02 0.03 0.02 0.01 0.00 0.00 0.00 0.00 0.00 0.01 0.01 0.01 0.02 0.02 0.04 0.07 0.12 0.14 0.17 0.18 0.21 0.19 0.15 0.15 0.13 0.11 0.10 0.11 0.14 0.16 0.14 0.12 0.10 0.07 0.05 0.04 0.04
0.01 0.02 0.02 0.01 0.02 0.03 0.03 0.01 0.00 0.00 0.00 0.00 0.00 0.01 0.01 0.03 0.06 0.09 0.14 0.18 0.21 0.26 0.28 0.22 0.18 0.18 0.17 0.15 0.15 0.13 0.16 0.17 0.14 0.11 0.10 0.08 0.05 0.04
0.01 0.02 0.04 0.04 0.05 0.05 0.05 0.04 0.03 0.02 0.01 0.01 0.00 0.00 0.01 0.02 0.04 0.06 0.10 0.14 0.19 0.27 0.31 0.29 0.25 0.19 0.17 0.17 0.19 0.17 0.15 0.17 0.18 0.15 0.12 0.10 0.08 0.06
0.01 0.02 0.04 0.06 0.05 0.01 0.01 0.02 0.02 0.02 0.01 0.00 0.00 0.00 0.00 0.00 0.01 0.02 0.05 0.09 0.12 0.18 0.28 0.28 0.25 0.23 0.20 0.18 0.19 0.22 0.19 0.17 0.18 0.17 0.14 0.12 0.10 0.08
0.02 0.03 0.02 0.02 0.01 0.00 0.01 0.02 0.02 0.02 0.03 0.03 0.02 0.01 0.00 0.00 0.00 0.00 0.02 0.04 0.09 0.14 0.18 0.21 0.21 0.20 0.21 0.20 0.19 0.20 0.21 0.21 0.20 0.18 0.15 0.13 0.11 0.07
0.02 0.03 0.04 0.01 0.00 0.00 0.00 0.01 0.01 0.01 0.02 0.03 0.03 0.03 0.02 0.01 0.01 0.01 0.01 0.02 0.06 0.12 0.17 0.19 0.17 0.17 0.17 0.18 0.20 0.19 0.18 0.18 0.18 0.18 0.16 0.14 0.11 0.07
0.01 0.01 0.03 0.00 0.00 0.00 0.00 0.00 0.00 0.00 0.00 0.01 0.01 0.01 0.01 0.01 0.01 0.02 0.02 0.03 0.04 0.09 0.16 0.21 0.21 0.18 0.15 0.14 0.17 0.17 0.17 0.17 0.16 0.14 0.14 0.15 0.12 0.08
0.00 0.00 0.01 0.00 0.00 0.00 0.00 0.00 0.00 0.00 0.00 0.00 0.00 0.01 0.01 0.01 0.02 0.03 0.04 0.05 0.05 0.07 0.10 0.16 0.20 0.23 0.23 0.19 0.14 0.13 0.15 0.17 0.15 0.14 0.12 0.12 0.09 0.06
0.01 0.01 0.01 0.00 0.00 0.00 0.00 0.00 0.00 0.00 0.00 0.01 0.01 0.01 0.01 0.01 0.02 0.03 0.05 0.07 0.07 0.07 0.09 0.12 0.17 0.21 0.26 0.27 0.21 0.13 0.10 0.11 0.13 0.13 0.11 0.09 0.07 0.04
0.02 0.02 0.02 0.03 0.03 0.03 0.04 0.04 0.04 0.03 0.02 0.01 0.02 0.02 0.02 0.03 0.03 0.05 0.07 0.09 0.09 0.07 0.06 0.09 0.15 0.20 0.24 0.30 0.29 0.21 0.13 0.09 0.09 0.10 0.10 0.09 0.06 0.04
0.00 0.00 0.01 0.02 0.04 0.06 0.08 0.09 0.09 0.09 0.08 0.06 0.05 0.04 0.03 0.03 0.04 0.05 0.08 0.09 0.10 0.09 0.08 0.08 0.11 0.18 0.23 0.26 0.27 0.23 0.16 0.11 0.09 0.08 0.08 0.07 0.06 0.04
0.00 0.00 0.01 0.02 0.03 0.05 0.06 0.07 0.08 0.10 0.12 0.10 0.08 0.07 0.06 0.05 0.06 0.07 0.09 0.09 0.10 0.11 0.11 0.10 0.09 0.11 0.16 0.19 0.18 0.16 0.14 0.11 0.10 0.09 0.08 0.06 0.04 0.03
0.00 0.01 0.02 0.03 0.05 0.06 0.06 0.06 0.07 0.11 0.13 0.12 0.10 0.09 0.09 0.08 0.08 0.09 0.10 0.11 0.11 0.11 0.12 0.11 0.08 0.07 0.09 0.13 0.14 0.12 0.10 0.10 0.09 0.09 0.08 0.06 0.04 0.03
0.04 0.05 0.05 0.05 0.06 0.07 0.08 0.08 0.09 0.11 0.12 0.14 0.13 0.12 0.12 0.11 0.10 0.10 0.12 0.13 0.14 0.13 0.11 0.09 0.07 0.09 0.13 0.17 0.18 0.16 0.12 0.10 0.11 0.08 0.08 0.07 0.04 0.03
0.07 0.09 0.08 0.07 0.08 0.09 0.09 0.10 0.11 0.12 0.12 0.13 0.13 0.13 0.13 0.12 0.10 0.12 0.13 0.15 0.15 0.14 0.12 0.13 0.14 0.14 0.16 0.17 0.18 0.17 0.14 0.12 0.11 0.12 0.11 0.07 0.03 0.02
0.11 0.11 0.09 0.09 0.09 0.09 0.09 0.10 0.12 0.14 0.14 0.13 0.14 0.15 0.15 0.13 0.11 0.13 0.15 0.17 0.19 0.18 0.18 0.18 0.17 0.15 0.14 0.16 0.19 0.18 0.15 0.13 0.10 0.09 0.08 0.07 0.05 0.03
MSLP
1015.85 1015.89 1015.93 1015.93 1015.88 1015.75 1015.56 1015.29 1014.97 1014.62 1014.26 1013.89 1013.54 1013.20 1012.88 1012.57 1012.28 1012.03 1011.84 1011.71 1011.69 1011.78 1011.99 1012.32 1012.76 1013.28 1013.84 1014.42 1014.99 1015.53 1016.05 1016.53 1016.99 1017.45 1017.92 1018.40 1018.90 1019.42
1015.39 1015.43 1015.47 1015.49 1015.45 1015.36 1015.20 1014.98 1014.71 1014.40 1014.08 1013.74 1013.40 1013.06 1012.71 1012.38 1012.05 1011.76 1011.53 1011.38 1011.32 1011.39 1011.59 1011.90 1012.31 1012.80 1013.32 1013.86 1014.38 1014.88 1015.34 1015.78 1016.21 1016.65 1017.10 1017.58 1018.08 1018.60
1014.92 1014.95 1014.98 1014.99 1014.95 1014.87 1014.73 1014.56 1014.34 1014.09 1013.82 1013.52 1013.21 1012.88 1012.54 1012.19 1011.84 1011.53 1011.27 1011.09 1011.02 1011.07 1011.24 1011.54 1011.92 1012.37 1012.86 1013.35 1013.82 1014.27 1014.68 1015.08 1015.48 1015.89 1016.33 1016.80 1017.31 1017.83
1014.49 1014.50 1014.50 1014.48 1014.43 1014.35 1014.23 1014.09 1013.92 1013.72 1013.51 1013.27 1013.00 1012.70 1012.37 1012.02 1011.66 1011.33 1011.05 1010.85 1010.76 1010.79 1010.95 1011.21 1011.56 1011.98 1012.42 1012.86 1013.27 1013.67 1014.04 1014.40 1014.77 1015.16 1015.59 1016.06 1016.57 1017.10
1014.13 1014.10 1014.06 1014.00 1013.92 1013.83 1013.72 1013.61 1013.48 1013.34 1013.19 1013.01 1012.79 1012.53 1012.22 1011.88 1011.53 1011.19 1010.90 1010.68 1010.57 1010.57 1010.69 1010.92 1011.23 1011.59 1011.98 1012.36 1012.72 1013.06 1013.38 1013.70 1014.04 1014.42 1014.85 1015.32 1015.85 1016.40
1013.80 1013.73 1013.64 1013.54 1013.43 1013.33 1013.22 1013.13 1013.05 1012.96 1012.87 1012.75 1012.59 1012.37 1012.10 1011.79 1011.44 1011.11 1010.80 1010.57 1010.43 1010.40 1010.48 1010.66 1010.92 1011.22 1011.54 1011.86 1012.15 1012.43 1012.70 1012.99 1013.30 1013.66 1014.09 1014.57 1015.11 1015.69
1013.46 1013.35 1013.22 1013.08 1012.94 1012.82 1012.73 1012.66 1012.61 1012.58 1012.55 1012.49 1012.38 1012.22 1011.99 1011.71 1011.39 1011.06 1010.75 1010.50 1010.34 1010.28 1010.32 1010.44 1010.64 1010.87 1011.12 1011.36 1011.59 1011.80 1012.02 1012.26 1012.54 1012.89 1013.31 1013.81 1014.37 1014.97
1013.06 1012.91 1012.75 1012.58 1012.43 1012.30 1012.21 1012.17 1012.16 1012.18 1012.20 1012.19 1012.15 1012.03 1011.85 1011.61 1011.32 1011.00 1010.71 1010.45 1010.28 1010.18 1010.18 1010.25 1010.38 1010.55 1010.72 1010.89 1011.04 1011.20 1011.36 1011.55 1011.80 1012.13 1012.54 1013.04 1013.62 1014.25
1012.55 1012.39 1012.21 1012.03 1011.87 1011.75 1011.67 1011.65 1011.67 1011.73 1011.79 1011.84 1011.84 1011.78 1011.64 1011.44 1011.19 1010.90 1010.62 1010.38 1010.19 1010.08 1010.05 1010.08 1010.16 1010.26 1010.37 1010.48 1010.57 1010.66 1010.77 1010.92 1011.13 1011.43 1011.83 1012.32 1012.91 1013.56
1011.94 1011.78 1011.60 1011.43 1011.27 1011.16 1011.10 1011.09 1011.14 1011.22 1011.32 1011.40 1011.44 1011.41 1011.32 1011.16 1010.94 1010.69 1010.44 1010.22 1010.04 1009.93 1009.88 1009.89 1009.94 1010.01 1010.08 1010.14 1010.19 1010.24 1010.31 1010.42 1010.59 1010.86 1011.23 1011.71 1012.29 1012.95
1011.26 1011.11 1010.95 1010.79 1010.65 1010.55 1010.51 1010.51 1010.57 1010.66 1010.77 1010.86 1010.92 1010.92 1010.85 1010.72 1010.54 1010.33 1010.11 1009.92 1009.77 1009.68 1009.64 1009.65 1009.69 1009.76 1009.82 1009.87 1009.90 1009.94 1009.99 1010.08 1010.23 1010.47 1010.81 1011.26 1011.82 1012.47
1010.57 1010.45 1010.31 1010.17 1010.05 1009.96 1009.92 1009.92 1009.97 1010.06 1010.15 1010.24 1010.29 1010.30 1010.24 1010.14 1009.98 1009.81 1009.63 1009.47 1009.36 1009.29 1009.29 1009.32 1009.39 1009.48 1009.56 1009.63 1009.69 1009.74 1009.80 1009.89 1010.04 1010.26 1010.57 1010.99 1011.52 1012.14
1009.94 1009.85 1009.73 1009.60 1009.49 1009.40 1009.35 1009.34 1009.37 1009.42 1009.49 1009.55 1009.58 1009.57 1009.52 1009.42 1009.28 1009.13 1008.99 1008.87 1008.79 1008.77 1008.81 1008.89 1009.00 1009.14 1009.28 1009.40 1009.52 1009.62 1009.72 1009.83 1009.99 1010.21 1010.50 1010.89 1011.38 1011.96
1009.41 1009.32 1009.21 1009.09 1008.98 1008.87 1008.80 1008.76 1008.75 1008.77 1008.80 1008.82 1008.82 1008.78 1008.72 1008.61 1008.49 1008.35 1008.24 1008.15 1008.11 1008.13 1008.21 1008.34 1008.51 1008.71 1008.92 1009.13 1009.32 1009.49 1009.66 1009.84 1010.03 1010.26 1010.55 1010.91 1011.36 1011.89
1008.96 1008.87 1008.76 1008.63 1008.49 1008.37 1008.26 1008.19 1008.13 1008.10 1008.08 1008.06 1008.02 1007.97 1007.88 1007.77 1007.65 1007.53 1007.43 1007.37 1007.36 1007.41 1007.53 1007.70 1007.93 1008.20 1008.48 1008.77 1009.05 1009.32 1009.58 1009.83 1010.08 1010.34 1010.64 1010.99 1011.41 1011.89
1008.55 1008.45 1008.32 1008.17 1008.00 1007.84 1007.69 1007.57 1007.48 1007.40 1007.34 1007.28 1007.22 1007.15 1007.06 1006.95 1006.84 1006.73 1006.65 1006.60 1006.61 1006.68 1006.82 1007.02 1007.29 1007.61 1007.96 1008.33 1008.70 1009.06 1009.41 1009.75 1010.07 1010.39 1010.71 1011.06 1011.45 1011.89
1008.12 1008.00 1007.83 1007.64 1007.44 1007.24 1007.05 1006.89 1006.75 1006.64 1006.55 1006.48 1006.41 1006.34 1006.26 1006.17 1006.08 1005.99 1005.92 1005.89 1005.91 1005.99 1006.13 1006.35 1006.64 1006.98 1007.38 1007.81 1008.25 1008.70 1009.14 1009.56 1009.96 1010.34 1010.70 1011.06 1011.44 1011.85
1007.59 1007.44 1007.24 1007.01 1006.76 1006.52 1006.29 1006.10 1005.93 1005.81 1005.71 1005.64 1005.58 1005.53 1005.48 1005.43 1005.38 1005.33 1005.29 1005.28 1005.30 1005.38 1005.52 1005.73 1006.01 1006.36 1006.78 1007.24 1007.74 1008.25 1008.77 1009.26 1009.74 1010.18 1010.59 1010.98 1011.36 1011.76
1006.93 1006.74 1006.51 1006.24 1005.96 1005.68 1005.42 1005.20 1005.02 1004.89 1004.79 1004.74 1004.71 1004.71 1004.71 1004.71 1004.72 1004.72 1004.72 1004.74 1004.78 1004.86 1004.99 1005.19 1005.45 1005.79 1006.20 1006.67 1007.20 1007.75 1008.32 1008.89 1009.43 1009.93 1010.39 1010.82 1011.23 1011.62
1006.13 1005.92 1005.66 1005.36 1005.05 1004.75 1004.46 1004.22 1004.03 1003.90 1003.81 1003.78 1003.80 1003.84 1003.91 1003.98 1004.05 1004.12 1004.18 1004.24 1004.31 1004.40 1004.53 1004.71 1004.95 1005.27 1005.66 1006.13 1006.66 1007.24 1007.85 1008.46 1009.06 1009.62 1010.14 1010.62 1011.05 1011.46
1005.24 1005.02 1004.75 1004.44 1004.11 1003.78 1003.48 1003.22 1003.02 1002.88 1002.81 1002.80 1002.84 1002.94 1003.06 1003.20 1003.35 1003.49 1003.62 1003.74 1003.85 1003.96 1004.10 1004.27 1004.50 1004.79 1005.16 1005.62 1006.15 1006.74 1007.37 1008.02 1008.67 1009.29 1009.87 1010.39 1010.87 1011.32
1004.33 1004.13 1003.86 1003.55 1003.21 1002.87 1002.55 1002.28 1002.05 1001.90 1001.82 1001.81 1001.88 1002.00 1002.17 1002.37 1002.58 1002.79 1002.99 1003.17 1003.33 1003.48 1003.64 1003.82 1004.05 1004.34 1004.70 1005.14 1005.66 1006.26 1006.91 1007.59 1008.27 1008.94 1009.57 1010.16 1010.69 1011.18
1003.49 1003.31 1003.06 1002.76 1002.43 1002.09 1001.76 1001.46 1001.21 1001.02 1000.92 1000.89 1000.94 1001.07 1001.26 1001.49 1001.75 1002.01 1002.27 1002.51 1002.73 1002.93 1003.12 1003.33 1003.57 1003.86 1004.22 1004.66 1005.18 1005.78 1006.44 1007.15 1007.86 1008.58 1009.26 1009.90 1010.48 1011.03
Thickness
5657 5656 5654 5653 5654 5654 5654 5653 5649 5648 5653 5661 5667 5674 5678 5681 5684 5686 5689 5694 5697 5701 5705 5708 5711 5713 5715 5717 5719 5720 5721 5722 5723 5723 5723 5723 5723 5723
5650 5647 5646 5645 5645 5644 5644 5644 5645 5643 5644 5651 5655 5663 5668 5672 5675 5678 5682 5686 5691 5695 5699 5703 5706 5708 5711 5714 5716 5717 5718 5720 5721 5721 5722 5723 5723 5723
5643 5641 5638 5637 5634 5634 5633 5634 5634 5635 5635 5641 5646 5652 5656 5660 5665 5669 5674 5678 5684 5689 5693 5697 5701 5704 5707 5709 5712 5714 5715 5717 5718 5720 5721 5721 5722 5722
5636 5633 5630 5628 5626 5624 5623 5623 5623 5625 5625 5628 5633 5638 5643 5650 5655 5660 5665 5671 5677 5682 5686 5690 5694 5698 5702 5705 5707 5710 5712 5714 5716 5717 5719 5720 5721 5721
5628 5625 5622 5620 5617 5615 5614 5613 5614 5616 5618 5619 5623 5628 5634 5639 5644 5650 5656 5662 5669 5674 5679 5683 5687 5692 5696 5700 5703 5706 5708 5711 5713 5715 5717 5718 5719 5720
5621 5618 5615 5612 5610 5608 5606 5605 5605 5605 5606 5609 5612 5617 5623 5629 5634 5639 5644 5652 5659 5666 5671 5676 5680 5684 5689 5694 5698 5702 5705 5708 5710 5712 5714 5716 5718 5718
5614 5610 5608 5607 5605 5602 5600 5599 5597 5596 5596 5598 5602 5607 5612 5617 5622 5629 5634 5642 5650 5657 5661 5667 5672 5677 5682 5687 5692 5697 5701 5704 5707 5710 5712 5714 5716 5716
5606 5603 5601 5600 5600 5597 5595 5593 5590 5588 5588 5588 5591 5595 5600 5605 5611 5617 5622 5629 5636 5647 5651 5657 5664 5669 5675 5681 5687 5691 5695 5700 5703 5707 5709 5712 5713 5714
5599 5596 5595 5596 5595 5593 5590 5587 5585 5583 5582 5581 5582 5585 5589 5595 5599 5604 5609 5616 5625 5634 5639 5647 5655 5660 5668 5674 5680 5685 5689 5694 5698 5702 5705 5708 5710 5711
5593 5591 5589 5588 5587 5585 5584 5582 5581 5580 5579 5578 5579 5581 5584 5587 5590 5594 5599 5607 5618 5626 5632 5637 5645 5651 5658 5664 5671 5676 5682 5687 5692 5696 5700 5703 5705 5706
5590 5589 5587 5585 5583 5580 5577 5576 5575 5575 5576 5577 5578 5579 5581 5582 5583 5585 5590 5596 5605 5616 5625 5629 5636 5641 5648 5654 5661 5667 5673 5679 5684 5689 5693 5696 5697 5698
5587 5586 5584 5582 5580 5576 5572 5570 5569 5569 5569 5570 5572 5574 5575 5577 5579 5580 5583 5588 5596 5605 5616 5621 5627 5631 5637 5645 5651 5658 5664 5670 5675 5680 5684 5688 5689 5690
5582 5581 5580 5578 5574 5570 5566 5564 5563 5561 5561 5562 5564 5567 5571 5573 5577 5579 5582 5585 5590 5598 5608 5613 5618 5623 5629 5635 5642 5649 5656 5661 5666 5670 5674 5678 5681 5685
5576 5574 5573 5569 5565 5562 5558 5557 5555 5553 5553 5554 5557 5561 5565 5569 5573 5577 5581 5585 5589 5594 5601 5605 5610 5616 5621 5626 5633 5639 5646 5652 5657 5661 5665 5668 5671 5676
5571 5569 5564 5559 5556 5554 5551 5550 5548 5546 5547 5549 5553 5557 5560 5565 5569 5573 5577 5581 5585 5591 5596 5600 5605 5610 5615 5621 5626 5631 5637 5643 5648 5653 5657 5660 5664 5667
5564 5562 5559 5556 5552 5551 5550 5548 5545 5545 5546 5547 5550 5553 5556 5559 5562 5566 5570 5574 5577 5583 5590 5595 5600 5605 5609 5615 5620 5625 5630 5636 5641 5645 5649 5652 5655 5659
5557 5555 5555 5555 5554 5553 5551 5550 5549 5547 5544 5544 5545 5547 5550 5553 5556 5560 5563 5567 5570 5575 5580 5587 5592 5598 5604 5609 5614 5620 5624 5629 5634 5637 5641 5643 5647 5651
5546 5550 5551 5552 5553 5553 5552 5550 5548 5547 5546 5544 5544 5544 5545 5548 5551 5554 5558 5560 5564 5569 5575 5579 5583 5587 5592 5600 5608 5614 5618 5622 5626 5630 5634 5637 5639 5643
5542 5547 5549 5550 5551 5551 5551 5550 5549 5548 5546 5544 5542 5542 5542 5544 5546 5549 5552 5555 5559 5564 5569 5574 5577 5581 5587 5594 5601 5608 5614 5616 5618 5622 5626 5632 5635 5638
5547 5548 5549 5550 5550 5550 5549 5548 5547 5546 5544 5542 5541 5541 5541 5541 5543 5545 5548 5551 5554 5558 5563 5568 5573 5579 5585 5591 5595 5600 5606 5612 5614 5617 5619 5621 5623 5627
5554 5553 5552 5551 5550 5549 5548 5546 5545 5543 5542 5540 5540 5539 5539 5539 5540 5542 5544 5546 5548 5553 5558 5564 5571 5575 5579 5582 5587 5593 5598 5603 5609 5613 5614 5614 5615 5618
5553 5553 5551 5549 5548 5547 5545 5544 5542 5541 5540 5540 5539 5539 5538 5538 5538 5539 5541 5543 5546 5551 5556 5560 5564 5567 5572 5577 5583 5588 5591 5593 5597 5602 5606 5613 5617 5620
5552 5550 5549 5547 5546 5544 5543 5542 5541 5540 5539 5539 5538 5538 5538 5537 5537 5538 5539 5541 5544 5547 5551 5554 5558 5562 5567 5573 5577 5581 5583 5586 5589 5591 5594 5601 5610 5616